#timestamp,LO_Frequency,Hit,StdDev 
1680739215.1,286047000.5,N
1680739235.9,286047001.9,N
1680739255.7,286046999.9,N
1680739275.5,286046998.4,N
1680739295.4,286046997.2,N
1680739315.2,286046999.4,N
1680739335.0,286046999.1,N
1680739335.9,286046999.1,N
1680739355.8,286047000.8,N
1680739375.6,286046999.7,N
1680739395.5,286047000.7,N
1680739415.3,286047002.7,N
1680739435.1,286046998.2,N
1680739455.9,286046998.1,N
1680739475.7,286046999.1,N
1680739495.5,286046997.3,N
1680739515.4,286046999.3,N
1680739535.2,286046999.3,N
1680739555.1,286046997.2,N
1680739556.0,286046997.2,N
1680739575.8,286046999.3,N
1680739595.6,286046997.7,N
1680739615.5,286046996.8,N
1680739635.3,286046996.5,N
1680739655.1,286046998.2,N
1680739675.9,286046999.4,N
1680739695.7,286046997.8,N
1680739715.6,286046997.8,N
1680739735.4,286046996.7,N
1680739755.2,286047001.2,N
1680739775.1,286047000.9,N
1680739776.0,286047000.9,N
1680739795.8,286047000.6,N
1680739815.6,286047000.3,N
1680739835.5,286046998.6,N
1680739855.3,286047000.5,N
1680739875.2,286047002.7,N
1680739895.9,286047002.0,N
1680739915.7,286047002.2,N
1680739935.6,286047002.1,N
1680739955.4,286047001.8,N
1680739975.2,286047002.5,N
1680739995.1,286047000.1,N
1680739996.0,286047000.1,N
1680740015.8,286047002.6,N
1680740035.7,286046999.7,N
1680740055.5,286047002.6,N
1680740075.3,286047000.2,N
1680740095.2,286047000.6,N
1680740115.0,286047000.1,N
1680740115.9,286047000.1,N
1680740135.8,286047000.5,N
1680740155.6,286047001.2,N
1680740175.4,286046998.7,N
1680740195.3,286046999.5,N
1680740215.1,286046998.3,N
1680740235.8,286047002.6,N
1680740255.7,286047000.7,N
1680740275.5,286046998.3,N
1680740295.3,286046999.1,N
1680740315.2,286046998.9,N
1680740335.0,286046997.0,N
1680740335.9,286046997.0,N
1680740355.8,286046995.4,N
1680740375.6,286046999.4,N
1680740395.4,286046998.9,N
1680740415.3,286047001.1,N
1680740435.1,286046999.2,N
1680740455.9,286046999.5,N
1680740475.7,286046999.5,N
1680740495.5,286046997.2,N
1680740515.4,286046997.5,N
1680740535.2,286046998.0,N
1680740555.0,286046996.8,N
1680740555.9,286046996.8,N
1680740575.8,286046999.3,N
1680740595.6,286046998.4,N
1680740615.5,286047001.2,N
1680740635.3,286047000.4,N
1680740655.1,286047000.4,N
1680740675.9,286047002.4,N
1680740695.7,286047002.8,N
1680740715.6,286047000.0,N
1680740735.4,286046999.9,N
1680740755.2,286047002.6,N
1680740775.1,286047002.5,N
1680740776.0,286047002.5,N
1680740795.8,286047001.6,N
1680740815.6,286047004.0,N
1680740835.5,286047003.6,N
1680740855.3,286047003.7,N
1680740875.2,286047007.2,Y
1680740895.0,286047005.2,P
1680740895.9,286047005.2,N
1680740915.7,286047006.0,N
1680740935.6,286047003.8,N
1680740955.4,286047002.6,N
1680740975.3,286046999.9,N
1680740995.1,286047002.3,N
1680740996.0,286047002.3,N
1680741015.8,286047002.7,N
1680741035.7,286047002.5,N
1680741055.5,286047001.9,N
1680741075.3,286047003.5,N
1680741095.2,286047001.3,N
1680741115.0,286047003.7,N
1680741115.9,286047003.7,N
1680741135.8,286047003.1,N
1680741155.6,286047004.0,N
1680741175.4,286047001.7,N
1680741195.3,286047003.7,N
1680741215.1,286047001.3,N
1680741235.9,286047002.2,N
1680741255.7,286047002.4,N
1680741275.5,286046999.7,N
1680741295.4,286047001.1,N
1680741315.2,286047000.3,N
1680741335.0,286046999.0,N
1680741335.9,286046999.0,N
1680741355.8,286047000.8,N
1680741375.6,286046999.7,N
1680741395.5,286047000.5,N
1680741415.3,286046997.9,N
1680741435.1,286046997.6,N
1680741455.9,286046999.2,N
1680741475.7,286046998.1,N
1680741495.5,286046999.7,N
1680741515.4,286047002.0,N
1680741535.2,286047001.7,N
1680741555.1,286047000.0,N
1680741556.0,286047000.0,N
1680741575.8,286047000.8,N
1680741595.6,286046998.3,N
1680741615.5,286047000.5,N
1680741635.3,286047000.5,N
1680741655.1,286046999.7,N
1680741675.9,286047001.8,N
1680741695.7,286047002.0,N
1680741715.6,286047000.3,N
1680741735.4,286047002.1,N
1680741755.2,286047002.4,N
1680741775.1,286046999.4,N
1680741776.0,286046999.4,N
1680741795.8,286046996.5,N
1680741815.6,286047000.4,N
1680741835.5,286047003.9,N
1680741855.3,286047004.3,N
1680741875.2,286047004.4,N
1680741895.9,286047003.5,N
1680741915.7,286047003.4,N
1680741935.6,286047003.8,N
1680741955.4,286047003.5,N
1680741975.2,286047003.1,N
1680741995.1,286047002.9,N
1680741996.0,286047002.9,N
1680742015.8,286047003.1,N
1680742035.7,286047005.8,Y
1680742055.5,286047003.3,P
1680742075.3,286047004.4,P
1680742095.2,286046998.1,N
1680742115.0,286046998.8,N
1680742115.9,286046998.8,N
1680742135.8,286046998.7,N
1680742155.6,286046995.5,N
1680742175.4,286046996.8,N
1680742195.3,286046998.7,N
1680742215.1,286047001.1,N
1680742235.8,286047001.0,N
1680742255.7,286047002.4,N
1680742275.5,286047001.4,N
1680742295.4,286047004.0,N
1680742315.2,286047003.3,N
1680742335.0,286047006.0,N
1680742335.9,286047006.0,N
1680742355.8,286047003.3,N
1680742375.6,286047005.7,N
1680742395.4,286047002.9,N
1680742415.3,286047005.6,N
1680742435.1,286047006.0,N
1680742455.9,286047001.3,N
1680742475.7,286047002.0,N
1680742495.5,286046998.2,N
1680742515.4,286047001.2,N
1680742535.2,286046998.4,N
1680742555.0,286046998.2,N
1680742555.9,286046998.2,N
1680742575.8,286047000.3,N
1680742595.6,286047000.7,N
1680742615.5,286047000.5,N
1680742635.3,286047002.4,N
1680742655.1,286047002.2,N
1680742675.9,286047001.9,N
1680742695.7,286047001.8,N
1680742715.5,286047003.8,N
1680742735.4,286047001.4,N
1680742755.2,286047002.6,N
1680742775.1,286047002.1,N
1680742776.0,286047002.1,N
1680742795.8,286047002.6,N
